When you browse on this site, cookies collect data to enhance your experience and personalize the content and advertising you see.
Visit our Privacy Policy to learn more. By continuing to use the site, you agree to this use of cookies and data.
  • In Hungary
  • List of Countries
  • For 7 days
  • Water Temperature
  • Satellite Maps
  • Weather Map
  • News
  • Weather Widgets
  • user-avatar
    Login

    Hourly Weather Agadir

    Today, 19 November, Monday

    Time Temperature Precipitation Wind Pressure Humidity
    00:00 +17°C° 0.2 mm 2 mps 756 mmHg 75%
    01:00 +17°C° 0.2 mm 2 mps 756 mmHg 76%
    02:00 +16°C° 0.2 mm 2 mps 756 mmHg 77%
    03:00 +16°C° 0.5 mm 2 mps 756 mmHg 77%
    04:00 +16°C° 0.5 mm 2 mps 756 mmHg 78%
    05:00 +16°C° 0 mm 2 mps 757 mmHg 80%
    06:00 +16°C° 0.7 mm 2 mps 757 mmHg 76%
    07:00 +17°C° 0.7 mm 2 mps 757 mmHg 72%
    08:00 +17°C° 0.7 mm 2 mps 757 mmHg 68%
    09:00 +18°C° 0.3 mm 3 mps 757 mmHg 64%
    10:00 +19°C° 0.3 mm 3 mps 757 mmHg 60%
    11:00 +19°C° 0.3 mm 3 mps 758 mmHg 56%
    12:00 +19°C° 0 mm 3 mps 757 mmHg 55%
    13:00 +20°C° 0 mm 3 mps 757 mmHg 54%
    14:00 +20°C° 0 mm 4 mps 757 mmHg 53%
    15:00 +19°C° 0 mm 3 mps 757 mmHg 57%
    16:00 +19°C° 0 mm 3 mps 757 mmHg 61%
    17:00 +18°C° 0 mm 3 mps 758 mmHg 65%
    18:00 +18°C° 0 mm 2 mps 758 mmHg 67%
    19:00 +17°C° 0 mm 2 mps 759 mmHg 69%
    20:00 +18°C° 0 mm 1 mps 759 mmHg 71%
    21:00 +18°C° 0 mm 1 mps 759 mmHg 72%
    22:00 +18°C° 0 mm 1 mps 759 mmHg 73%
    23:00 +16°C° 0 mm 1 mps 760 mmHg 74%

    Tomorrow, 20 November, Tuesday

    Time Temperature Precipitation Wind Pressure Humidity
    00:00 +16°C° 0 mm 1 mps 760 mmHg 75%
    01:00 +16°C° 0 mm 2 mps 760 mmHg 76%
    02:00 +16°C° 0 mm 2 mps 760 mmHg 77%
    03:00 +16°C° 0 mm 2 mps 760 mmHg 77%
    04:00 +16°C° 0 mm 2 mps 760 mmHg 77%
    05:00 +16°C° 0 mm 2 mps 760 mmHg 78%
    06:00 +16°C° 0 mm 2 mps 761 mmHg 74%
    07:00 +17°C° 0 mm 2 mps 761 mmHg 70%
    08:00 +18°C° 0 mm 2 mps 761 mmHg 66%
    09:00 +19°C° 0 mm 2 mps 761 mmHg 63%
    10:00 +20°C° 0 mm 2 mps 761 mmHg 61%
    11:00 +20°C° 0 mm 2 mps 762 mmHg 58%
    12:00 +21°C° 0 mm 3 mps 761 mmHg 58%
    13:00 +21°C° 0 mm 3 mps 761 mmHg 58%
    14:00 +22°C° 0 mm 3 mps 761 mmHg 58%
    15:00 +21°C° 0 mm 3 mps 761 mmHg 62%
    16:00 +20°C° 0 mm 2 mps 761 mmHg 67%
    17:00 +19°C° 0 mm 2 mps 761 mmHg 72%
    18:00 +20°C° 0 mm 1 mps 761 mmHg 76%
    19:00 +20°C° 0 mm 1 mps 762 mmHg 80%
    20:00 +19°C° 0 mm 1 mps 762 mmHg 84%
    21:00 +19°C° 0 mm 1 mps 762 mmHg 85%
    22:00 +18°C° 0 mm 1 mps 762 mmHg 86%
    23:00 +18°C° 0 mm 1 mps 762 mmHg 87%

    Day after tomorrow, 21 November, Wednesday

    Time Temperature Precipitation Wind Pressure Humidity
    00:00 +18°C° 0 mm 1 mps 762 mmHg 87%
    01:00 +18°C° 0 mm 1 mps 762 mmHg 87%
    02:00 +16°C° 0 mm 1 mps 762 mmHg 87%
    03:00 +16°C° 0 mm 2 mps 761 mmHg 86%
    04:00 +16°C° 0 mm 2 mps 761 mmHg 85%
    05:00 +16°C° 0 mm 2 mps 761 mmHg 84%
    06:00 +17°C° 0 mm 2 mps 762 mmHg 77%
    07:00 +18°C° 0 mm 2 mps 762 mmHg 70%
    08:00 +19°C° 0 mm 2 mps 762 mmHg 63%
    09:00 +20°C° 0 mm 2 mps 762 mmHg 58%
    10:00 +21°C° 0 mm 2 mps 762 mmHg 52%
    11:00 +23°C° 0 mm 2 mps 762 mmHg 47%
    12:00 +23°C° 0.1 mm 2 mps 762 mmHg 48%
    13:00 +23°C° 0.1 mm 2 mps 761 mmHg 49%
    14:00 +23°C° 0.1 mm 2 mps 761 mmHg 50%
    15:00 +21°C° 0.3 mm 2 mps 761 mmHg 55%
    16:00 +21°C° 0.3 mm 2 mps 761 mmHg 59%
    17:00 +21°C° 0.3 mm 1 mps 761 mmHg 63%
    18:00 +20°C° 0.1 mm 2 mps 762 mmHg 63%
    19:00 +20°C° 0.1 mm 2 mps 762 mmHg 63%
    20:00 +20°C° 0.1 mm 2 mps 762 mmHg 64%
    21:00 +20°C° 0.2 mm 2 mps 762 mmHg 63%
    22:00 +20°C° 0.2 mm 2 mps 762 mmHg 63%
    23:00 +19°C° 0.2 mm 2 mps 762 mmHg 63%

    22 November, Thursday

    Time Temperature Precipitation Wind Pressure Humidity
    00:00 +19°C° 0.1 mm 2 mps 762 mmHg 61%
    01:00 +19°C° 0.1 mm 3 mps 761 mmHg 60%
    02:00 +19°C° 0.1 mm 3 mps 761 mmHg 59%
    03:00 +19°C° 0 mm 3 mps 761 mmHg 58%
    04:00 +18°C° 0 mm 3 mps 761 mmHg 57%
    05:00 +18°C° 0 mm 3 mps 760 mmHg 55%
    06:00 +19°C° 0 mm 4 mps 761 mmHg 51%
    07:00 +20°C° 0 mm 4 mps 761 mmHg 47%
    08:00 +21°C° 0 mm 4 mps 761 mmHg 43%
    09:00 +22°C° 0 mm 4 mps 761 mmHg 40%
    10:00 +25°C° 0 mm 4 mps 761 mmHg 37%
    11:00 +26°C° 0 mm 5 mps 761 mmHg 34%
    12:00 +26°C° 0 mm 5 mps 760 mmHg 33%
    13:00 +27°C° 0 mm 4 mps 759 mmHg 33%
    14:00 +27°C° 0 mm 4 mps 759 mmHg 33%
    15:00 +26°C° 0 mm 4 mps 758 mmHg 34%
    16:00 +25°C° 0 mm 4 mps 758 mmHg 36%
    17:00 +23°C° 0 mm 5 mps 758 mmHg 38%
    18:00 +23°C° 0 mm 5 mps 758 mmHg 39%
    19:00 +23°C° 0 mm 5 mps 759 mmHg 39%
    20:00 +22°C° 0 mm 6 mps 759 mmHg 40%
    21:00 +22°C° 0 mm 5 mps 759 mmHg 42%
    22:00 +22°C° 0 mm 5 mps 759 mmHg 44%
    23:00 +22°C° 0 mm 4 mps 759 mmHg 46%

    23 November, Friday

    Time Temperature Precipitation Wind Pressure Humidity
    00:00 +21°C° 0.2 mm 4 mps 759 mmHg 51%
    01:00 +21°C° 0.2 mm 5 mps 759 mmHg 56%
    02:00 +20°C° 0.2 mm 5 mps 759 mmHg 61%
    03:00 +20°C° 0.6 mm 4 mps 759 mmHg 67%
    04:00 +19°C° 0.6 mm 4 mps 759 mmHg 72%
    05:00 +19°C° 0.6 mm 4 mps 759 mmHg 78%
    06:00 +19°C° 1.2 mm 3 mps 760 mmHg 79%
    07:00 +19°C° 1.2 mm 3 mps 760 mmHg 79%
    08:00 +19°C° 1.2 mm 3 mps 760 mmHg 80%
    09:00 +19°C° 0.9 mm 3 mps 760 mmHg 77%
    10:00 +19°C° 0.9 mm 3 mps 761 mmHg 74%
    11:00 +19°C° 0.9 mm 4 mps 761 mmHg 71%
    12:00 +19°C° 0.1 mm 4 mps 760 mmHg 67%
    13:00 +20°C° 0.1 mm 4 mps 760 mmHg 63%
    14:00 +20°C° 0.1 mm 4 mps 759 mmHg 59%
    15:00 +20°C° 0 mm 3 mps 760 mmHg 60%
    16:00 +19°C° 0 mm 3 mps 760 mmHg 62%
    17:00 +19°C° 0 mm 2 mps 760 mmHg 63%
    18:00 +19°C° 0 mm 2 mps 761 mmHg 62%
    19:00 +19°C° 0 mm 2 mps 761 mmHg 62%
    20:00 +18°C° 0 mm 2 mps 761 mmHg 61%
    21:00 +18°C° 0 mm 2 mps 761 mmHg 60%
    22:00 +18°C° 0 mm 2 mps 761 mmHg 59%
    23:00 +18°C° 0 mm 2 mps 761 mmHg 58%

    24 November, Saturday

    Time Temperature Precipitation Wind Pressure Humidity
    00:00 +18°C° 0.1 mm 2 mps 761 mmHg 59%
    01:00 +18°C° 0.1 mm 1 mps 761 mmHg 59%
    02:00 +18°C° 0.1 mm 1 mps 760 mmHg 59%
    03:00 +18°C° 0.1 mm 1 mps 761 mmHg 61%
    04:00 +16°C° 0.1 mm 1 mps 761 mmHg 63%
    05:00 +16°C° 0.1 mm 1 mps 761 mmHg 65%
    06:00 +18°C° 0 mm 1 mps 762 mmHg 60%
    07:00 +19°C° 0 mm 1 mps 762 mmHg 55%
    08:00 +20°C° 0 mm 1 mps 763 mmHg 51%
    09:00 +21°C° 0 mm 1 mps 763 mmHg 50%
    10:00 +21°C° 0 mm 2 mps 762 mmHg 48%
    11:00 +21°C° 0 mm 2 mps 762 mmHg 47%
    12:00 +23°C° 0 mm 2 mps 762 mmHg 48%
    13:00 +22°C° 0 mm 3 mps 762 mmHg 50%
    14:00 +22°C° 0 mm 3 mps 761 mmHg 51%
    15:00 +21°C° 0 mm 3 mps 762 mmHg 57%
    16:00 +20°C° 0 mm 3 mps 762 mmHg 62%
    17:00 +19°C° 0 mm 2 mps 762 mmHg 67%
    18:00 +19°C° 0 mm 2 mps 763 mmHg 70%
    19:00 +19°C° 0 mm 2 mps 763 mmHg 74%
    20:00 +18°C° 0 mm 2 mps 763 mmHg 77%
    21:00 +18°C° 0 mm 2 mps 764 mmHg 78%
    22:00 +17°C° 0 mm 2 mps 764 mmHg 80%
    23:00 +17°C° 0 mm 2 mps 764 mmHg 82%
    Show more